OE6ATD-13 Weather Reports


time (UTC)temp
C
wind
direction
speed
KPH
gust
KPH
rain 1hr
cm
rain 24hr
cm
rain mn
cm
humidity
%
barometer
mb
20260507100527 22 174 4.8 9.7 0.00 0.00 0.00 44 1011.5
20260507095522 22 174 4.8 11.3 0.00 0.00 0.00 44 1011.5
20260507094518 23 201 6.4 9.7 0.00 0.00 0.00 43 1011.5
20260507093528 23 192 0.0 8.0 0.00 0.00 0.00 45 1011.7
20260507092524 21 191 1.6 6.4 0.00 0.00 0.00 49 1011.6
20260507091520 22 177 3.2 8.0 0.00 0.00 0.00 46 1011.6
20260507090516 21 180 1.6 6.4 0.00 0.00 0.00 52 1011.6
20260507085527 21 173 3.2 9.7 0.00 0.00 0.00 54 1011.6
20260507084523 20 178 3.2 6.4 0.00 0.00 0.00 58 1011.6
20260507083519 18 198 1.6 6.4 0.00 0.00 0.00 60 1011.6
20260507082529 18 188 1.6 6.4 0.00 0.00 0.00 59 1011.6
20260507081525 18 180 0.0 4.8 0.00 0.00 0.00 60 1011.5
20260507080521 18 0.0 0.0 0.00 0.00 0.00 62 1011.2
20260507075517 17 180 0.0 3.2 0.00 0.00 0.00 62 1011.4
20260507074528 17 189 0.0 3.2 0.00 0.00 0.00 62 1011.2
20260507073523 17 0.0 0.0 0.00 0.00 0.00 66 1011.3
20260507072519 16 0.0 0.0 0.00 0.00 0.00 67 1011.2
20260507071515 16 0.0 0.0 0.00 0.00 0.00 68 1011.0
20260507070516 16 0.0 0.0 0.00 0.00 0.00 71 1010.8
20260507065527 15 0.0 0.0 0.00 0.00 0.00 72 1010.8
20260507064522 15 0.0 0.0 0.00 0.00 0.00 73 1010.7
20260507063518 15 0.0 0.0 0.00 0.00 0.00 74 1010.5
20260507062529 15 0.0 0.0 0.00 0.00 0.00 76 1010.6
20260507061525 15 0.0 0.0 0.00 0.00 0.00 77 1010.6
20260507060521 14 0.0 0.0 0.00 0.00 0.00 76 1010.5
20260507055517 14 0.0 0.0 0.00 0.00 0.00 77 1010.3
20260507054528 14 0.0 0.0 0.00 0.00 0.00 77 1010.2
20260507053523 13 0.0 0.0 0.00 0.00 0.00 77 1010.2
20260507052519 13 0.0 0.0 0.00 0.00 0.00 77 1010.2
20260507051530 13 0.0 0.0 0.00 0.00 0.00 77 1010.1
20260507050526 13 0.0 0.0 0.00 0.00 0.00 78 1009.9
20260507045522 13 0.0 0.0 0.00 0.00 0.00 77 1009.9
20260507044517 13 0.0 0.0 0.00 0.00 0.00 76 1009.6
20260507043528 13 0.0 0.0 0.00 0.00 0.00 76 1009.6
20260507042524 13 0.0 0.0 0.00 0.00 0.00 76 1009.5
20260507041520 13 0.0 0.0 0.00 0.00 0.00 76 1009.5
20260507040530 13 0.0 0.0 0.00 0.00 0.00 76 1009.4
20260507035526 13 0.0 0.0 0.00 0.00 0.00 77 1009.4
20260507034521 13 0.0 0.0 0.00 0.00 0.00 77 1009.5
20260507033517 13 0.0 0.0 0.00 0.00 0.00 76 1009.5
20260507032519 13 0.0 0.0 0.00 0.00 0.00 75 1009.4
20260507031515 13 0.0 0.0 0.00 0.00 0.00 74 1009.4
20260507030526 14 0.0 0.0 0.00 0.00 0.00 72 1009.4
20260507025522 14 0.0 0.0 0.00 0.00 0.00 72 1009.4
20260507024518 15 0.0 0.0 0.00 0.00 0.00 71 1009.4
20260507023529 15 0.0 0.0 0.00 0.00 0.00 71 1009.4
20260507022525 15 0.0 0.0 0.00 0.00 0.00 71 1009.5
20260507021520 15 0.0 0.0 0.00 0.00 0.00 71 1009.4
20260507020531 15 0.0 0.0 0.00 0.00 0.00 71 1009.5
20260507015517 15 315 0.0 3.2 0.00 0.00 0.00 71 1009.5
20260507014528 15 0.0 0.0 0.00 0.00 0.00 70 1009.5
20260507013525 15 0.0 0.0 0.00 0.00 0.00 70 1009.3
20260507012520 16 0.0 0.0 0.00 0.00 0.00 69 1009.3
20260507011516 16 0 0.0 1.6 0.00 0.00 0.00 69 1009.2
20260507010527 16 0.0 0.0 0.00 0.00 0.00 68 1009.1
20260507005522 16 276 1.6 6.4 0.00 0.00 0.00 68 1009.2
20260507004518 16 270 0.0 4.8 0.00 0.00 0.00 68 1009.2
20260507003529 16 321 0.0 4.8 0.00 0.00 0.00 67 1009.2
20260507002525 16 274 0.0 6.4 0.00 0.00 0.00 68 1009.2
20260507001521 16 250 0.0 6.4 0.00 0.00 0.00 68 1009.3
20260507000516 16 0.0 0.0 0.00 0.00 0.00 69 1009.5
20260506235527 16 171 0.0 6.4 0.00 0.00 0.00 69 1009.4
20260506234523 16 251 0.0 4.8 0.00 0.00 0.00 67 1009.5
20260506233519 16 297 0.0 6.4 0.00 0.00 0.00 67 1009.5
20260506232530 16 231 0.0 3.2 0.00 0.00 0.00 67 1009.5
20260506231526 16 270 0.0 3.2 0.00 0.00 0.00 67 1009.6
20260506230521 16 0.0 0.0 0.00 0.00 0.00 66 1009.6
20260506225517 16 315 0.0 4.8 0.00 0.00 0.00 66 1009.4
20260506224528 16 225 0.0 1.6 0.00 0.00 0.00 66 1009.5
20260506223524 16 270 0.0 1.6 0.00 0.00 0.00 66 1009.3
20260506222520 17 0.0 0.0 0.00 0.00 0.00 66 1009.2
20260506221516 17 0.0 0.0 0.00 0.00 0.00 66 1009.2
20260506220526 17 0.0 1.6 0.00 0.00 0.00 66 1009.1
20260506215522 16 270 0.0 3.2 0.00 0.00 0.00 67 1009.1
20260506214524 16 234 3.2 12.9 0.00 0.00 0.00 70 1009.3
20260506213520 15 253 0.0 4.8 0.00 0.00 0.00 76 1009.3
20260506212516 15 0.0 0.0 0.00 0.00 0.00 76 1009.1
20260506211527 14 0.0 0.0 0.00 0.00 0.00 75 1009.0
20260506210522 14 0.0 0.0 0.00 0.00 0.00 75 1009.0
20260506205518 15 0.0 0.0 0.00 0.00 0.00 74 1009.0
20260506204529 15 0.0 0.0 0.00 0.00 0.00 73 1008.9
20260506203525 15 0.0 0.0 0.00 0.00 0.00 73 1009.0
20260506202521 15 0.0 0.0 0.00 0.00 0.00 72 1008.9
20260506201517 15 0.0 0.0 0.00 0.00 0.00 71 1008.9
20260506200527 16 0.0 0.0 0.00 0.00 0.00 71 1008.8
20260506195522 16 214 0.0 3.2 0.00 0.00 0.00 70 1008.8
20260506194518 16 0.0 0.0 0.00 0.00 0.00 68 1008.8
20260506193529 16 0.0 0.0 0.00 0.00 0.00 68 1008.9
20260506192524 16 0.0 0.0 0.00 0.00 0.00 64 1008.6
20260506191520 17 180 0.0 1.6 0.00 0.00 0.00 64 1008.6
20260506190516 16 315 4.8 8.0 0.00 0.00 0.00 64 1008.4
20260506185527 17 191 0.0 4.8 0.00 0.00 0.00 61 1008.2
20260506184528 17 0.0 0.0 0.00 0.00 0.00 60 1008.3
20260506183523 17 180 0.0 1.6 0.00 0.00 0.00 59 1008.0
20260506182519 18 237 0.0 8.0 0.00 0.00 0.00 59 1008.0
20260506181515 18 211 0.0 6.4 0.00 0.00 0.00 59 1007.9
20260506180526 18 0.0 0.0 0.00 0.00 0.00 57 1007.7
20260506175522 18 247 0.0 4.8 0.00 0.00 0.00 56 1007.9
20260506174518 19 197 0.0 4.8 0.00 0.00 0.00 54 1007.8
20260506173528 20 204 0.0 4.8 0.00 0.00 0.00 54 1007.8
20260506172525 20 203 3.2 11.3 0.00 0.00 0.00 53 1007.7
20260506171520 21 263 1.6 6.4 0.00 0.00 0.00 51 1007.7
20260506170516 21 262 1.6 4.8 0.00 0.00 0.00 52 1007.6
20260506165527 22 188 1.6 9.7 0.00 0.00 0.00 52 1007.7
20260506164522 21 258 1.6 6.4 0.00 0.00 0.00 54 1007.7
20260506163519 20 258 4.8 16.1 0.00 0.00 0.00 54 1007.8
20260506162530 21 267 4.8 16.1 0.00 0.00 0.00 53 1008.0
20260506161525 21 225 4.8 11.3 0.00 0.00 0.00 54 1008.2
20260506160521 20 180 9.7 11.3 0.00 0.00 0.00 55 1008.3
20260506155517 20 233 3.2 14.5 0.00 0.00 0.00 55 1008.1
20260506154528 20 182 3.2 9.7 0.00 0.00 0.00 55 1008.3
20260506153523 20 193 3.2 14.5 0.00 0.00 0.00 55 1008.3
20260506152519 21 206 6.4 14.5 0.00 0.00 0.00 54 1008.3
20260506151516 21 202 3.2 8.0 0.00 0.00 0.00 53 1008.3
20260506150526 20 0.0 0.0 0.00 0.00 0.00 55 1008.4
20260506145521 20 284 6.4 14.5 0.00 0.00 0.00 54 1008.2
20260506144517 20 298 3.2 9.7 0.00 0.00 0.00 54 1008.3
20260506143528 20 306 6.4 11.3 0.00 0.00 0.00 53 1008.3
20260506142524 20 263 4.8 19.3 0.00 0.00 0.00 53 1008.5
20260506141520 20 309 3.2 11.3 0.00 0.00 0.00 52 1008.4
20260506140515 21 225 9.7 16.1 0.00 0.00 0.00 50 1008.5
20260506135527 22 257 4.8 14.5 0.00 0.00 0.00 47 1008.5
20260506134521 22 248 11.3 30.6 0.00 0.00 0.00 45 1008.4
20260506133517 22 295 6.4 19.3 0.00 0.00 0.00 44 1008.4
20260506132528 22 282 3.2 9.7 0.00 0.00 0.00 43 1008.3
20260506131523 23 261 4.8 14.5 0.00 0.00 0.00 42 1008.4
20260506130520 23 299 9.7 19.3 0.00 0.00 0.00 42 1008.4
20260506125515 23 255 8.0 19.3 0.00 0.00 0.00 42 1008.4
20260506124525 23 308 8.0 17.7 0.00 0.00 0.00 42 1008.5
20260506123521 23 270 9.7 19.3 0.00 0.00 0.00 41 1008.5
20260506122516 23 256 8.0 16.1 0.00 0.00 0.00 42 1008.5
20260506121527 23 267 6.4 16.1 0.00 0.00 0.00 40 1008.6
20260506120523 24 315 9.7 14.5 0.00 0.00 0.00 40 1008.7
20260506115519 24 204 8.0 19.3 0.00 0.00 0.00 41 1008.6
20260506114530 23 216 6.4 19.3 0.00 0.00 0.00 42 1008.6
20260506113525 22 234 11.3 19.3 0.00 0.00 0.00 44 1008.5
20260506112522 21 237 4.8 9.7 0.00 0.00 0.00 50 1008.7
20260506111517 21 262 3.2 14.5 0.00 0.00 0.00 50 1009.0
20260506110528 21 304 6.4 14.5 0.00 0.00 0.00 51 1009.1
20260506105524 21 237 4.8 14.5 0.00 0.00 0.00 51 1009.2
20260506104526 21 232 1.6 8.0 0.00 0.00 0.00 51 1009.3
20260506103522 20 271 3.2 12.9 0.00 0.00 0.00 51 1009.3
20260506102518 20 257 6.4 14.5 0.00 0.00 0.00 51 1009.5
20260506101529 20 229 8.0 17.7 0.00 0.00 0.00 51 1009.5